{"data":{"norad_id":61055,"intl_designator":"2024-164F","name":"STARLINK-11268 [DTC]","alt_names":[],"object_type":"PAYLOAD","status":"ACTIVE","operator":null,"country":"US","launch_date":"2024-09-13","launch_site_code":"AFWTR","launch_vehicle":null,"mission":null,"orbit_class":"UNKNOWN","rcs_meters":null,"size_class":null,"mass_kg":null,"dimensions":null,"purposes":["comms"],"wikipedia_slug":null,"has_3d_model":false,"image_url":null,"decayed_at":null,"tle_current":{"epoch":"2026-09-21T19:09:49.468608Z","epoch_age_seconds":79990,"freshness":"FRESH","line1":"1 61055U 24164F   26264.79848922  .00000325  00000+0  75421-5 0  9996","line2":"2 61055  53.1598  64.2559 0001065  77.4190 282.6947 15.69711363116223","mean_motion":15.69711363,"eccentricity":0.0001065,"inclination_deg":53.1598,"raan_deg":64.2559,"arg_perigee_deg":77.419,"mean_anomaly_deg":282.6947,"bstar":7.5421e-6,"rev_number":11622,"period_min":91.736610560549,"perigee_km":359.0052679643,"apogee_km":360.44043211236,"semimajor_km":6737.8598500383,"source":"CELESTRAK","updated_at":"2026-09-22T09:00:49.331543Z"}}}